ATLAS 5 CENTAUR DEB, 43962

Orbit data source: Space-Track

ATLAS 5 CENTAUR DEB, 43962 is space debris in HEO originally from a launch on Wed, 17 Sep 2014 UTC launched from the Air Force Eastern Test Range (AFETR). Debris objects in space refer to the collection of defunct objects orbiting the Earth. Examples of debris include non-operational satellites, rocket bodies, and fragments generated from explosions, collisions, or faulty payload assembly.

Loading next visibility...
Identifier
43962, 2014-055R
Orbit
HEO
Country
Flag of USUS
Related business
Flag of USUnited Launch Alliance/Lockheed Martin (US)
Manufacturer
Unknown
Mission
Spacecraft
Bus & Motor
Unknown
Mass
Unknown
Launch date (UTC)
2014-09-17 (12 years ago)
Launch vehicle
Unknown
Launch site
Air Force Eastern Test Range (AFETR)
Object type
Payload
Rocket body
Debris
Shape & HBR
Unknown shape, 1.1 m
Radar Cross Section
Medium (>0.1 m² and <1 m²)

Expand to show TLE details & history
Last TLE update: 3 days ago

TLE from 3 days ago
0 ATLAS 5 CENTAUR DEB
1 43962U 14055R   26170.10600944 -.00000072  00000-0  00000-0 0  9999
2 43962  20.8494 111.7453 4976257 225.8864  80.5114  1.90751309 54340
Epoch: 2026-06-19T02:32Z
TLE epoch observation values (Epoch: 2026-06-19T02:32:39.215Z)
Latitude
0.00002°
Longitude
166.18556°
Altitude
25,256.65 km
Speed
3.269 km/s
True Right ascension
07h 26m 45s
True Declination
0° 00' 00"
Sunlit
Object was in daylight at epoch
Visualization orbit readout
Latitude
Unknown
Longitude
Unknown
Altitude
Unknown
Speed
Unknown
Apparent Right ascension
Unknown
Apparent Declination
Unknown
Sunlit
N/A
Visualization observer readout
Local Sidereal Time
21:41:21
Azimuth
Unknown
Elevation
Unknown
Doppler factor
Unknown
Orbital elements
Apogee altitude
34,755.002 km
Perigee altitude
7,419.858 km
Semi-major axis
27,465.567 km
Eccentricity
0.49763
Inclination
20.8494°
RAAN
111.7453°
Arg. of periapsis
225.8864°
True anomaly
134.11444°
Mean anomaly
80.5114°
Eccentric anomaly
107.67702°
Mean motion
0.47683 °/min
Orbital period
754.99 mins
BSTAR
0
Loading maneuver chart data...
Computing Atmospheric mass density...

Documentation

Showing up to 5 results
|